Date String (YYYY-MM-DD hh:mm:ss) UTC,Instrument flags,Ambient pressure (hPa),Sample flow (lpm),Bypass flow (lpm),Sample temperature (°C),Ambient temperature (°C),ASC tube jacket temperature (°C),LED temperature (°C),Box temperature (°C),Sample RH (%),Span deviation,Mass concentration (μg/m³),Mass concentration (μg/m³),Mass concentration (μg/m³)
DateTimeUTC,F1_M11,P_M11,Q1_M11,Q2_M11,T1_M11,T2_M11,T3_M11,T4_M11,T5_M11,U1_M11,ZSPAN_M11,X0_M11,X2_M11,X1_M11
2022-09-30 22:00:00,,0825.6,5.00,0.00,29.5,26.9,00.0,38.2,31.2,21.6,0000.0,0002.90,0001.97,0001.62
2022-09-30 22:01:00,,0825.6,4.99,0.00,29.4,27.2,00.0,38.2,31.2,21.4,0000.0,0002.76,0001.85,0001.51
2022-09-30 22:02:00,,0825.7,5.00,0.00,29.4,27.4,00.0,38.2,31.2,20.9,0000.0,0002.71,0001.72,0001.37
2022-09-30 22:03:00,,0825.7,5.01,0.00,29.4,27.6,00.0,38.1,31.2,20.4,0000.0,0002.63,0001.58,0001.23
2022-09-30 22:04:00,,0825.8,5.00,0.00,29.4,27.7,00.0,38.1,31.2,20.6,0000.0,0002.50,0001.45,0001.09
2022-09-30 22:05:00,,0825.8,5.00,0.00,29.4,27.9,00.0,38.2,31.2,20.5,0000.0,0002.37,0001.33,0000.96
2022-09-30 22:06:00,,0825.9,5.00,0.00,29.4,28.0,00.0,38.1,31.3,20.6,0000.0,0002.14,0001.15,0000.81
2022-09-30 22:07:00,,0825.9,5.01,0.00,29.4,28.0,00.0,38.2,31.3,20.4,0000.0,0001.85,0000.97,0000.67
2022-09-30 22:08:00,,0826.0,4.99,0.00,29.5,28.1,00.0,38.2,31.3,20.2,0000.0,0001.45,0000.78,0000.55
2022-09-30 22:09:00,,0826.0,5.01,0.00,29.5,28.2,00.0,38.2,31.3,20.5,0000.0,0001.28,0000.66,0000.45
2022-09-30 22:10:00,,0826.1,5.00,0.00,29.5,28.2,00.0,38.2,31.4,21.0,0000.0,0001.11,0000.57,0000.36
2022-09-30 22:11:00,,0826.2,5.01,0.00,29.5,28.2,00.0,38.2,31.4,21.5,0000.0,0001.18,0000.56,0000.33
2022-09-30 22:12:00,,0826.2,4.99,0.00,29.5,28.3,00.0,38.2,31.4,22.2,0000.0,0001.50,0000.63,0000.33
2022-09-30 22:13:00,,0826.1,5.01,0.00,29.5,28.3,00.0,38.2,31.4,22.8,0000.0,0001.68,0000.68,0000.34
2022-09-30 22:14:00,,0826.2,4.99,0.00,29.5,28.3,00.0,38.2,31.5,22.7,0000.0,0001.78,0000.73,0000.38
2022-09-30 22:15:00,,0826.2,4.99,0.00,29.6,28.3,00.0,38.3,31.5,22.9,0000.0,0001.94,0000.81,0000.41
2022-09-30 22:16:00,,0826.1,5.01,0.00,29.6,28.4,00.0,38.3,31.5,23.5,0000.0,0002.10,0000.87,0000.44
2022-09-30 22:17:00,,0826.2,4.99,0.00,29.6,28.4,00.0,38.3,31.5,23.8,0000.0,0002.32,0000.94,0000.46
2022-09-30 22:18:00,,0826.2,5.01,0.00,29.6,28.4,00.0,38.3,31.5,23.6,0000.0,0002.45,0000.99,0000.49
2022-09-30 22:19:00,,0826.2,5.00,0.00,29.7,28.5,00.0,38.3,31.6,24.2,0000.0,0002.67,0001.06,0000.52
2022-09-30 22:20:00,,0826.2,5.00,0.00,29.7,28.5,00.0,38.4,31.6,24.4,0000.0,0002.82,0001.12,0000.54
2022-09-30 22:21:00,,0826.1,5.00,0.00,29.7,28.5,00.0,38.4,31.6,24.6,0000.0,0002.91,0001.16,0000.56
2022-09-30 22:22:00,,0826.1,4.99,0.00,29.7,28.5,00.0,38.4,31.6,24.4,0000.0,0002.89,0001.21,0000.59
2022-09-30 22:23:00,,0826.1,5.01,0.00,29.7,28.5,00.0,38.4,31.6,24.3,0000.0,0002.67,0001.19,0000.60
2022-09-30 22:24:00,,0826.1,5.00,0.00,29.7,28.5,00.0,38.4,31.6,24.5,0000.0,0002.52,0001.16,0000.61
2022-09-30 22:25:00,,0826.0,4.99,0.00,29.8,28.5,00.0,38.4,31.7,24.5,0000.0,0002.51,0001.14,0000.62
2022-09-30 22:26:00,,0826.0,5.00,0.00,29.8,28.5,00.0,38.5,31.7,24.3,0000.0,0002.61,0001.13,0000.64
2022-09-30 22:27:00,,0826.0,5.00,0.00,29.8,27.8,00.0,38.4,31.6,24.4,0000.0,0002.56,0001.13,0000.67
2022-09-30 22:28:00,,0825.9,5.00,0.00,29.7,26.6,00.0,38.4,31.5,24.4,0000.0,0002.67,0001.18,0000.70
2022-09-30 22:29:00,,0825.9,5.01,0.00,29.7,26.2,00.0,38.4,31.4,24.5,0000.0,0002.73,0001.23,0000.74
2022-09-30 22:30:00,,0825.8,5.00,0.00,29.6,26.4,00.0,38.3,31.3,25.2,0000.0,0002.74,0001.28,0000.77
2022-09-30 22:31:00,,0825.9,5.00,0.00,29.5,26.7,00.0,38.3,31.2,25.2,0000.0,0003.05,0001.38,0000.81
2022-09-30 22:32:00,,0825.9,5.00,0.00,29.5,26.9,00.0,38.3,31.2,25.1,0000.0,0003.34,0001.53,0000.86
2022-09-30 22:33:00,,0825.9,5.00,0.00,29.4,27.2,00.0,38.2,31.2,24.9,0000.0,0003.64,0001.66,0000.91
2022-09-30 22:34:00,,0825.9,4.99,0.00,29.4,27.3,00.0,38.2,31.2,25.5,0000.0,0003.88,0001.78,0000.95
2022-09-30 22:35:00,,0825.9,4.99,0.00,29.4,27.5,00.0,38.2,31.2,25.7,0000.0,0004.22,0001.94,0000.99
2022-09-30 22:36:00,,0825.9,5.00,0.00,29.4,27.6,00.0,38.2,31.2,25.3,0000.0,0004.40,0002.03,0001.03
2022-09-30 22:37:00,,0826.0,5.01,0.00,29.4,27.7,00.0,38.2,31.2,25.5,0000.0,0004.41,0002.13,0001.05
2022-09-30 22:38:00,,0826.0,4.99,0.00,29.4,27.8,00.0,38.2,31.2,25.8,0000.0,0005.32,0002.25,0001.08
2022-09-30 22:39:00,,0825.9,5.00,0.00,29.4,27.8,00.0,38.2,31.2,26.2,0000.0,0005.53,0002.34,0001.12
2022-09-30 22:40:00,,0825.8,5.01,0.00,29.4,27.9,00.0,38.2,31.3,26.1,0000.0,0005.61,0002.41,0001.14
2022-09-30 22:41:00,,0825.8,4.98,0.00,29.4,28.0,00.0,38.2,31.3,25.9,0000.0,0005.89,0002.47,0001.15
2022-09-30 22:42:00,,0825.8,5.01,0.00,29.4,28.0,00.0,38.2,31.3,25.7,0000.0,0005.90,0002.46,0001.14
2022-09-30 22:43:00,,0825.8,5.00,0.00,29.4,28.0,00.0,38.2,31.3,25.9,0000.0,0006.18,0002.45,0001.13
2022-09-30 22:44:00,,0825.9,4.99,0.00,29.4,28.1,00.0,38.2,31.3,25.8,0000.0,0006.63,0002.37,0001.11
2022-09-30 22:45:00,,0826.0,5.00,0.00,29.5,28.1,00.0,38.2,31.4,25.8,0000.0,0006.63,0002.28,0001.08
2022-09-30 22:46:00,,0826.0,4.99,0.00,29.5,28.2,00.0,38.2,31.4,25.8,0000.0,0006.50,0002.21,0001.06
2022-09-30 22:47:00,,0826.0,5.00,0.00,29.5,28.2,00.0,38.2,31.4,25.7,0000.0,0006.18,0002.10,0001.02
2022-09-30 22:48:00,,0826.0,5.01,0.00,29.5,28.2,00.0,38.2,31.4,25.8,0000.0,0006.16,0002.08,0001.00
2022-09-30 22:49:00,,0826.0,5.00,0.00,29.5,28.3,00.0,38.2,31.4,26.0,0000.0,0005.70,0002.05,0000.98
2022-09-30 22:50:00,,0826.0,5.00,0.00,29.5,28.3,00.0,38.3,31.5,25.9,0000.0,0005.32,0002.01,0000.96
2022-09-30 22:51:00,,0826.0,4.99,0.00,29.6,28.4,00.0,38.3,31.5,25.5,0000.0,0005.31,0001.98,0000.94
2022-09-30 22:52:00,,0826.0,5.01,0.00,29.6,28.4,00.0,38.3,31.5,25.4,0000.0,0005.17,0001.98,0000.94
2022-09-30 22:53:00,,0826.0,4.99,0.00,29.6,28.5,00.0,38.3,31.5,25.1,0000.0,0005.20,0001.98,0000.94
2022-09-30 22:54:00,,0826.0,5.00,0.00,29.6,28.5,00.0,38.3,31.6,24.6,0000.0,0004.85,0001.95,0000.94
2022-09-30 22:55:00,,0826.0,5.00,0.00,29.7,28.5,00.0,38.3,31.6,25.0,0000.0,0004.12,0001.95,0000.95
2022-09-30 22:56:00,,0826.0,4.99,0.00,29.7,28.6,00.0,38.4,31.6,25.3,0000.0,0003.96,0001.97,0000.98
2022-09-30 22:57:00,,0826.0,5.01,0.00,29.7,28.6,00.0,38.4,31.6,25.4,0000.0,0003.90,0001.97,0000.99
2022-09-30 22:58:00,,0826.0,5.00,0.00,29.7,28.6,00.0,38.4,31.7,25.4,0000.0,0004.01,0002.02,0001.02
2022-09-30 22:59:00,,0825.9,4.99,0.00,29.8,28.6,00.0,38.4,31.7,25.3,0000.0,0004.33,0002.03,0001.05
